Find Starlink 32296

NORAD ID: 61524 Int'l Des: 2024-183 Owner: SPXS Country: US Constellation: starlink operational
LEOCIRCULAR

現在のビュー

3D地球を読み込み中...

About Starlink 32296

Starlink 32296 (NORAD 61524) is a starlink constellation satellite (v2 mini) launched Oct 15, 2024 by SPXS of US. It operates in LEO, CIRCULAR orbit with a mass of 730.00 kg.

次回通過

Passes for default location (London). Set your location on the main map for personalized predictions.

高度履歴

Loading altitude history...

軌道要素

1 61524U 24183R 26255.27978962 .00001252 00000-0 52105-4 0 9993
2 61524 53.1618 354.0871 0001408 92.9892 267.1271 15.31706883108247
Epoch: Sep 12, 2026 • Age: 14 hours

現在のステータス

高度 475.6 km
遠地点 / 近地点 N/A
速度 7.63 km/s
衛星直下点 50.04°N, 105.3°E
打ち上げ日 Oct 15, 2024
運用期間 1.9 years
タイプ internet

技術仕様

分類 Payload
質量 730.00 kg
乾燥質量 700.00 kg
総質量 730.00 kg
長さ 0.30 m
直径 4.10 m
スパン 29.00 m
形状 Box + pan
製造者 SPXS
バスタイプ Starlink V2M
フェーズステータス In Orbit
所有者/国 SPXS/US

Most Searched